Snowfall_Accumulation
2.5 6.6 8.7 4.2 3.1 2.5 2.5 2.5 2.4 1.3 0.5 0.6 0.7 0.6 0.1 0.1 0.0 0.0 0.0 0.0 0.0 0.0 0.0 0.0 0.0 0.0 0.0 0.0 0.0 0.0 0.0 0.0 0.0 0.0 0.0 0.0 0.0 0.0 0.0 0.0 0.0 0.0 0.0 0.0
5.3 6.9 3.2 1.1 1.3 2.3 3.4 4.1 2.9 1.2 0.6 0.7 0.8 0.6 0.2 0.1 0.1 0.1 0.0 0.0 0.0 0.0 0.0 0.0 0.0 0.0 0.0 0.0 0.0 0.0 0.0 0.0 0.0 0.0 0.0 0.0 0.0 0.0 0.0 0.0 0.0 0.0 0.0 0.0
6.0 3.1 0.7 1.6 2.8 3.8 3.9 3.8 2.7 2.2 1.3 1.0 1.5 1.7 0.5 0.1 0.1 0.2 0.1 0.0 0.0 0.0 0.0 0.0 0.0 0.0 0.0 0.0 0.0 0.0 0.0 0.0 0.0 0.0 0.0 0.0 0.0 0.0 0.0 0.0 0.0 0.0 0.0 0.0
3.4 0.9 1.0 2.5 3.0 3.5 4.9 1.7 1.6 2.1 3.6 4.4 3.2 5.7 1.0 0.3 0.1 0.1 0.2 0.2 0.1 0.0 0.0 0.0 0.0 0.0 0.0 0.0 0.0 0.0 0.0 0.0 0.0 0.0 0.0 0.0 0.0 0.0 0.0 0.0 0.0 0.0 0.0 0.0
4.2 1.3 1.9 3.6 2.2 2.0 2.7 0.9 1.4 2.4 3.9 5.8 2.7 5.5 1.6 0.3 0.8 0.9 0.3 0.2 0.3 0.1 0.0 0.0 0.0 0.0 0.0 0.0 0.0 0.0 0.0 0.0 0.0 0.0 0.0 0.0 0.0 0.0 0.0 0.0 0.0 0.0 0.0 0.0
2.7 0.6 1.1 2.0 0.8 1.1 1.3 1.7 2.2 3.1 6.5 14.0 4.7 4.7 2.5 1.4 1.5 1.1 0.3 0.2 0.2 0.2 0.1 0.0 0.0 0.0 0.0 0.0 0.0 0.0 0.0 0.0 0.0 0.0 0.0 0.0 0.0 0.0 0.0 0.0 0.0 0.0 0.0 0.0
5.8 2.6 1.2 1.0 2.8 2.2 3.2 8.6 21.2 24.0 23.3 12.5 1.9 2.9 2.7 1.4 0.9 0.9 0.5 0.2 0.2 0.2 0.2 0.1 0.0 0.0 0.0 0.0 0.0 0.0 0.0 0.0 0.0 0.0 0.0 0.0 0.0 0.0 0.0 0.0 0.0 0.1 0.1 0.0
9.4 8.6 2.3 1.0 2.4 4.7 4.0 6.3 13.9 15.9 11.8 4.8 2.1 2.7 1.9 0.9 0.5 0.3 0.3 0.1 0.1 0.1 0.2 0.1 0.1 0.0 0.1 0.0 0.0 0.0 0.0 0.0 0.0 0.0 0.0 0.0 0.0 0.0 0.0 0.0 0.1 0.1 0.1 0.0
9.7 7.4 2.0 0.7 0.8 2.2 5.5 5.9 4.1 8.2 6.8 4.3 3.1 2.1 1.5 0.5 0.5 0.4 0.5 0.4 0.3 0.3 0.1 0.2 0.0 0.0 0.1 0.1 0.0 0.0 0.0 0.0 0.0 0.0 0.0 0.0 0.0 0.0 0.0 0.0 0.1 0.1 0.1 0.0
9.8 8.6 3.1 1.3 1.2 1.8 3.1 4.1 6.8 12.1 11.3 6.5 3.2 2.2 2.4 1.7 0.9 0.6 0.7 0.6 0.4 0.4 0.2 0.1 0.0 0.0 0.1 0.1 0.0 0.0 0.0 0.0 0.0 0.0 0.0 0.0 0.0 0.0 0.0 0.0 0.1 0.1 0.0 0.1
7.9 9.8 7.0 3.8 5.5 5.7 5.1 6.9 9.5 10.8 9.0 8.1 5.1 3.3 2.7 2.0 1.3 1.0 0.8 0.8 0.5 0.3 0.3 0.2 0.1 0.0 0.0 0.1 0.1 0.1 0.0 0.1 0.0 0.0 0.0 0.0 0.0 0.0 0.0 0.1 0.1 0.1 0.1 0.1
8.0 10.6 9.8 5.5 2.7 2.7 4.3 6.8 8.5 12.9 10.4 6.1 5.8 4.2 1.8 1.4 1.1 1.0 0.8 0.8 0.7 0.4 0.4 0.3 0.2 0.1 0.0 0.1 0.1 0.2 0.1 0.1 0.0 0.0 0.0 0.0 0.1 0.0 0.1 0.1 0.1 0.2 0.2 0.2
11.2 14.0 14.6 9.4 5.4 3.9 5.7 6.2 7.0 8.1 9.1 7.3 6.4 4.4 1.7 1.0 0.8 0.7 0.7 0.7 0.8 0.7 0.5 0.4 0.4 0.2 0.2 0.3 0.3 0.3 0.3 0.2 0.1 0.0 0.0 0.0 0.2 0.1 0.2 0.2 0.2 0.2 0.3 0.2
10.4 15.7 12.2 11.2 8.6 8.2 7.8 5.8 5.9 8.3 11.4 7.9 5.0 3.8 2.8 2.0 1.6 1.2 0.8 0.8 0.9 0.9 0.7 0.6 0.4 0.4 0.4 0.4 0.3 0.4 0.4 0.3 0.4 0.2 0.1 0.3 0.4 0.4 0.5 0.3 0.5 1.0 1.6 1.6
11.4 14.0 6.4 3.8 3.7 4.2 5.0 4.4 4.7 6.3 6.5 6.2 3.8 3.3 3.7 2.6 1.9 1.6 1.2 1.0 1.0 1.0 1.0 1.0 0.9 0.7 0.4 0.4 0.4 0.4 0.4 0.4 0.5 0.5 0.3 0.4 0.6 1.2 0.8 0.5 0.7 1.1 1.7 2.5
11.8 12.9 6.4 3.6 2.3 2.9 3.8 2.9 2.7 3.2 3.3 3.7 3.2 3.9 3.0 1.9 1.4 1.4 1.4 1.3 1.4 1.5 1.5 1.4 1.3 1.2 1.0 0.9 0.6 0.5 0.4 0.6 0.6 0.7 0.5 0.8 1.2 1.9 1.8 0.8 0.7 1.0 1.7 2.3
11.2 11.3 10.1 6.6 2.7 4.2 6.2 3.6 3.0 3.1 3.0 3.4 4.1 4.4 3.2 2.4 1.8 1.8 1.6 1.8 1.7 1.8 1.9 1.7 1.9 1.9 1.6 1.3 1.3 1.2 0.9 0.6 0.5 0.8 0.9 1.2 1.5 2.1 2.1 1.9 1.7 2.1 2.6 2.6
9.1 10.5 13.1 9.9 7.3 10.7 4.8 2.6 2.4 2.6 3.4 3.2 3.6 3.6 2.9 2.5 2.5 2.0 1.8 1.9 2.0 2.0 1.9 1.9 2.0 2.0 1.7 1.7 1.5 1.4 1.2 0.9 0.8 0.8 1.2 1.3 1.6 2.1 1.8 1.5 1.9 2.2 1.9 1.7
4.3 9.7 14.9 13.2 10.3 6.0 2.8 2.3 2.9 3.5 4.5 3.5 3.1 3.0 2.4 2.2 2.2 2.4 1.9 1.8 2.1 2.0 1.8 1.9 1.8 1.8 1.3 1.3 1.4 1.4 1.1 1.1 1.0 1.1 1.2 1.5 1.6 2.1 1.7 1.6 1.4 1.6 1.5 1.4
4.1 8.1 15.1 14.0 11.0 6.0 3.2 1.7 1.8 2.8 5.3 3.1 2.6 2.9 2.6 2.4 3.9 3.8 2.7 2.0 1.9 1.7 1.5 1.6 1.5 1.3 0.9 0.8 0.8 0.9 0.9 1.0 1.2 1.2 1.4 1.1 1.3 1.6 1.1 1.1 0.8 0.5 0.7 1.5
8.6 12.7 14.6 11.7 9.1 4.2 2.6 1.7 1.4 5.4 7.2 3.0 2.6 2.8 2.6 3.2 4.3 3.6 2.7 2.1 1.9 1.9 1.7 1.6 1.5 1.5 1.2 0.8 0.7 0.8 0.6 0.8 0.9 0.9 1.1 0.8 0.8 0.8 0.6 0.9 0.6 0.6 1.0 1.1
6.0 8.7 9.3 8.7 9.6 5.3 2.4 2.7 4.9 5.9 2.7 2.5 2.6 2.3 2.5 2.3 2.2 2.0 2.3 2.2 1.9 2.0 1.6 1.5 1.6 1.6 1.4 1.2 1.1 1.0 0.9 0.8 0.8 1.3 1.4 1.1 0.9 0.8 0.8 1.4 1.2 1.0 1.2 1.0
4.4 5.6 6.0 6.2 5.4 3.9 2.9 3.2 3.1 2.3 2.3 2.1 2.3 2.3 2.4 2.4 2.2 2.1 2.0 2.0 1.8 1.8 1.5 1.4 1.7 1.8 1.4 1.2 1.3 1.4 1.1 1.1 1.1 1.4 1.2 1.0 0.7 0.7 1.0 1.4 1.6 1.4 1.4 2.0
3.3 2.9 3.8 3.8 3.1 2.6 2.5 2.4 2.2 1.9 1.9 1.8 2.0 2.4 2.3 2.4 2.1 2.0 1.7 1.9 1.8 1.7 1.4 1.4 1.6 1.9 2.0 1.8 1.7 1.5 1.4 1.3 1.4 1.4 1.0 0.7 0.8 0.8 0.9 1.0 1.7 2.1 2.4 3.3
2.9 2.7 3.5 3.4 2.5 2.0 1.7 1.8 2.0 2.0 1.6 1.5 1.6 1.9 2.1 2.0 2.0 1.9 1.9 1.8 1.9 1.8 1.4 1.4 1.6 1.8 1.9 1.8 1.7 1.6 1.9 1.8 1.7 1.5 1.4 0.9 0.9 0.9 1.1 1.1 1.4 2.3 2.6 4.4
2.2 2.7 3.5 3.1 2.0 2.2 1.9 1.4 1.4 1.7 1.7 1.5 1.7 2.0 1.7 1.8 2.1 2.0 1.8 1.7 1.7 1.7 1.6 1.4 1.4 1.6 1.6 1.6 1.8 1.8 2.0 2.3 2.4 2.0 1.6 1.4 1.5 1.1 1.1 1.3 1.4 1.2 1.9 2.2